Wind_Speed
8 8 8 9 8 9 8 8 9 8 8 8 9 8 8 9 9 8 8 9 11 11 12 12 11 11 11 11 11 11 12 12 13 12 12 13 13 13 13 13 13 13 13 13
9 9 9 9 9 10 9 9 9 9 9 9 10 9 9 9 9 9 9 9 10 11 13 13 12 12 12 12 12 13 14 14 13 13 13 13 13 14 14 14 14 14 14 14
11 11 10 9 10 10 10 10 10 10 10 9 9 10 10 10 10 10 11 11 11 12 12 13 13 13 13 13 14 14 14 14 14 14 13 14 14 15 15 15 15 15 15 15
13 12 12 10 11 11 11 10 11 11 11 11 10 10 11 11 11 11 11 12 13 13 13 14 15 15 15 14 14 15 15 15 15 15 15 15 15 16 16 16 16 16 16 16
15 15 13 12 12 12 12 11 12 12 12 11 11 11 11 11 12 12 12 12 13 13 14 14 15 16 16 15 15 16 16 16 16 16 16 16 17 17 17 17 17 17 16 17
17 16 15 13 13 14 13 13 13 14 14 13 12 12 12 12 12 12 13 13 13 13 13 14 15 17 17 17 17 17 17 17 17 17 18 18 18 18 18 18 17 17 17 18
19 18 17 15 15 15 14 13 14 15 15 14 14 14 14 14 13 13 13 14 14 14 14 14 14 15 16 17 17 18 18 18 18 18 18 19 20 19 19 19 19 19 19 20
21 20 18 16 16 16 15 16 16 16 16 15 16 16 16 16 15 14 14 15 15 15 15 16 16 16 17 17 17 17 17 18 18 19 20 20 21 21 20 20 21 21 22 22
22 21 19 18 18 18 18 18 18 17 17 17 17 18 18 17 17 16 16 16 16 17 17 17 18 18 18 18 18 18 18 19 19 20 20 20 20 20 21 22 23 23 23 24
24 22 21 20 20 19 19 19 20 19 19 19 19 19 19 19 18 18 18 18 18 18 18 18 18 18 19 18 18 19 19 20 21 21 21 21 21 22 23 23 24 25 25 26
25 23 23 22 22 22 21 21 21 21 21 21 21 20 20 20 20 20 20 19 19 19 19 19 19 19 19 19 20 20 21 21 22 22 22 22 23 24 24 25 26 27 28 29
26 25 25 24 24 24 23 23 22 22 22 22 22 22 21 21 21 21 21 21 21 20 20 20 20 21 21 21 21 22 22 23 23 24 24 25 25 26 26 27 28 29 29 30
27 27 26 25 25 25 24 24 24 24 24 23 23 23 22 22 22 22 22 23 22 22 22 22 22 23 23 23 23 24 24 25 25 25 26 26 27 28 28 29 29 30 31 31
29 28 27 27 27 26 26 25 25 25 25 24 24 24 24 24 24 24 24 24 24 24 24 24 24 25 25 25 26 26 26 27 27 27 28 28 29 29 30 30 31 31 32 33
30 29 29 28 27 27 27 27 26 26 26 26 26 26 26 26 26 26 26 26 26 26 26 26 26 27 27 27 27 28 28 28 28 29 29 30 30 30 31 31 32 33 34 35
31 31 31 29 29 28 28 27 27 27 27 28 27 28 28 28 27 27 27 27 27 28 28 28 28 28 28 28 29 29 29 29 30 30 30 31 31 31 32 33 34 35 36 37
32 32 31 31 30 30 29 28 28 28 28 29 29 29 29 28 29 29 28 29 29 29 29 29 29 29 29 30 30 30 31 31 31 32 32 32 33 33 34 35 36 36 37 38
33 33 32 32 30 30 29 29 29 29 29 29 29 29 29 29 29 29 30 30 30 30 30 30 30 30 30 31 31 31 31 32 32 33 33 34 34 35 36 37 38 38 39 40
33 33 33 32 31 31 31 30 30 30 29 29 30 29 29 29 29 30 30 31 31 31 31 31 31 32 32 31 32 32 32 33 34 35 36 36 37 38 39 39 40 41 41 42
33 33 33 32 32 32 31 31 30 30 30 30 30 30 30 30 31 31 31 31 32 32 32 32 33 33 33 33 33 33 34 35 36 36 37 38 39 40 40 41 42 42 43 43
33 33 32 32 32 32 32 32 31 31 31 31 31 31 31 31 31 32 32 32 32 32 32 32 33 33 33 34 34 35 35 36 37 37 38 39 40 41 42 42 43 44 44 45
34 33 32 32 32 32 32 32 32 32 32 32 32 33 33 32 32 32 32 32 32 32 32 32 33 34 34 35 36 36 37 37 38 39 40 40 41 42 43 43 44 44 45 46
34 34 33 32 31 31 32 32 32 32 31 32 32 32 32 32 32 32 32 32 32 33 33 33 34 35 36 37 37 38 38 39 39 40 40 41 42 42 43 43 44 45 46 47
34 34 33 33 32 31 31 31 32 32 32 32 32 32 32 32 32 32 32 32 33 33 33 34 35 36 36 37 38 38 39 39 40 40 41 41 42 43 44 44 45 47 48 48
34 34 33 32 32 31 31 31 31 31 31 31 32 32 32 32 32 32 33 33 34 35 35 35 35 36 37 37 38 39 39 40 41 42 42 43 44 45 45 46 47 47 48 49
35 34 33 32 32 32 32 32 31 31 31 31 32 32 32 32 33 33 33 34 35 35 36 36 36 37 38 38 39 40 41 41 42 43 43 44 45 46 46 47 47 48 49 49
34 33 33 33 32 32 32 32 32 32 31 31 31 32 32 33 34 34 34 35 35 36 37 37 38 38 38 39 40 41 42 42 43 44 44 45 45 45 46 46 47 47 48 49
Wind_Direction
233 236 236 238 234 228 225 226 227 231 236 239 240 239 238 237 234 237 236 236 236 240 243 243 243 244 246 249 253 255 256 258 255 255 257 260 263 266 269 272 272 271 272 271
236 239 237 235 233 227 227 227 229 230 237 243 243 243 243 244 242 245 244 243 242 245 245 244 244 246 250 252 256 259 262 262 258 260 262 264 266 266 270 273 272 272 272 271
239 243 242 233 235 234 233 232 233 236 241 245 246 247 250 251 249 250 250 249 249 251 247 243 243 248 254 256 260 263 265 263 261 261 264 266 267 269 273 275 274 273 272 271
238 241 241 239 240 241 239 238 240 239 241 245 248 251 253 254 252 253 254 254 253 254 254 250 249 251 255 259 261 264 266 266 266 264 266 269 270 270 272 275 274 273 274 272
240 241 242 242 242 242 241 241 242 243 246 248 249 254 257 258 257 256 256 257 256 257 257 256 255 255 258 261 264 267 269 269 268 267 269 271 273 273 273 273 274 273 273 273
242 243 243 241 241 243 244 242 241 245 249 252 255 259 261 261 261 260 259 257 256 257 257 258 260 259 260 263 265 269 271 270 269 270 271 272 273 274 275 274 273 274 275 275
244 246 246 243 244 246 248 246 243 246 250 253 258 259 261 262 261 262 262 260 260 260 259 261 265 264 263 264 267 270 271 271 271 272 273 273 274 274 274 274 273 274 275 276
246 248 247 247 246 247 248 249 249 249 251 254 257 259 261 263 262 262 261 261 261 262 264 265 266 265 265 266 268 270 272 273 274 274 275 275 275 275 275 275 275 275 276 277
246 248 247 247 248 249 249 250 251 251 253 256 258 260 261 263 263 263 263 264 263 263 265 267 267 266 266 268 268 268 270 272 273 277 276 275 275 276 277 277 277 276 277 279
245 246 247 246 247 249 250 252 253 254 255 258 260 262 263 264 264 264 265 265 265 265 265 267 268 268 268 269 269 270 272 273 274 276 277 276 277 279 281 281 279 277 279 281
246 247 249 248 248 249 251 253 255 256 257 258 259 261 263 264 263 263 264 265 265 266 267 267 268 270 271 271 272 275 277 277 277 278 278 280 282 283 283 283 284 283 282 282
245 246 248 249 250 251 252 253 255 257 258 258 259 260 262 263 263 263 263 264 266 267 268 268 270 272 273 273 274 276 278 279 279 279 280 281 282 283 283 283 284 284 283 283
245 246 248 250 250 250 251 252 254 256 257 258 258 259 260 262 263 263 263 264 265 267 269 270 272 273 274 274 275 277 279 280 280 281 282 282 282 282 282 283 284 284 284 284
246 247 249 251 251 251 251 252 254 255 257 258 259 259 260 262 263 263 264 265 266 268 270 271 272 273 273 273 275 277 279 280 281 282 283 284 284 284 284 283 284 284 285 285
246 248 250 252 252 253 254 255 256 257 258 259 259 259 260 261 263 264 265 267 267 268 270 271 273 273 273 274 276 277 278 280 281 282 283 284 285 285 286 286 286 286 286 286
245 247 249 251 253 254 255 255 256 256 257 258 259 259 260 261 262 263 265 267 268 269 271 272 273 274 274 274 276 278 279 280 281 282 283 284 285 286 287 288 288 288 288 288
244 246 248 250 252 253 255 255 255 256 257 257 259 260 261 262 262 263 265 267 268 269 271 272 272 273 274 275 277 278 279 280 281 282 283 284 285 286 287 288 288 289 289 290
246 247 249 250 251 252 252 253 255 256 257 257 259 261 262 263 263 264 266 268 270 271 272 272 273 273 274 276 278 279 280 280 281 282 283 284 285 287 288 289 290 290 290 290
248 249 250 251 251 251 252 253 255 256 256 258 259 260 261 263 264 266 267 268 269 270 271 272 273 274 276 277 278 279 280 282 283 284 284 285 286 287 288 289 289 290 290 291
249 250 250 250 251 252 252 253 254 255 256 257 259 260 262 263 265 266 267 268 269 270 271 272 274 274 275 276 278 280 282 284 285 285 286 287 287 288 289 289 290 291 291 292
249 250 250 250 252 253 253 254 254 255 255 257 259 261 262 263 265 266 269 270 270 271 272 273 273 274 275 277 279 281 283 285 286 287 288 288 289 289 289 290 290 291 292 293
248 249 249 251 252 254 254 255 256 256 257 258 259 261 261 262 264 267 268 268 269 271 273 273 274 275 276 277 279 281 283 285 285 286 287 289 290 291 291 291 291 292 293 294
247 248 249 251 252 253 254 255 256 257 258 259 260 260 262 263 265 266 267 268 269 271 272 274 276 278 279 279 280 281 283 285 286 287 289 290 291 292 292 292 292 292 293 295
247 248 249 251 252 253 254 255 256 258 259 259 259 260 261 263 264 265 267 269 270 272 274 276 278 280 282 282 283 283 284 285 287 289 290 291 292 292 293 293 293 293 294 295
246 247 248 249 250 252 254 256 257 258 258 259 259 260 261 263 264 267 268 270 272 274 276 277 280 282 283 284 284 285 286 288 289 290 291 291 292 293 293 293 294 294 295 296
244 246 248 249 250 252 255 256 258 259 259 259 259 260 262 264 266 268 269 271 273 275 276 278 280 282 284 285 286 287 288 289 290 291 292 292 292 293 293 293 294 295 296 297
244 246 248 249 251 252 254 255 256 258 259 259 261 263 265 266 268 269 271 273 275 277 278 280 282 283 284 285 286 287 288 289 290 291 292 292 292 293 293 294 295 296 297 298
Height
5841 5841 5842 5842 5843 5844 5845 5846 5848 5849 5850 5850 5851 5852 5852 5853 5854 5855 5856 5857 5858 5859 5860 5861 5861 5862 5863 5863 5864 5864 5865 5865 5865 5865 5865 5865 5864 5864 5863 5863 5862 5861 5860 5860
5838 5839 5839 5840 5841 5842 5843 5844 5845 5846 5848 5848 5849 5850 5850 5851 5852 5853 5854 5854 5855 5856 5857 5858 5859 5859 5860 5860 5861 5861 5861 5861 5861 5861 5861 5861 5861 5860 5860 5859 5858 5857 5856 5856
5836 5836 5837 5838 5839 5840 5841 5842 5843 5844 5846 5846 5847 5847 5848 5849 5850 5850 5851 5852 5852 5853 5853 5854 5855 5856 5857 5857 5857 5857 5858 5858 5857 5857 5857 5857 5857 5856 5855 5855 5854 5853 5852 5852
5833 5834 5835 5838 5837 5837 5838 5839 5840 5841 5842 5843 5844 5845 5845 5846 5847 5847 5848 5848 5849 5850 5850 5851 5852 5853 5853 5853 5854 5854 5854 5854 5854 5853 5853 5853 5852 5852 5851 5850 5849 5849 5848 5848
5829 5830 5832 5834 5834 5834 5835 5837 5837 5838 5839 5840 5841 5842 5843 5843 5843 5844 5845 5845 5846 5846 5847 5847 5848 5848 5849 5849 5849 5849 5849 5849 5849 5849 5849 5848 5848 5847 5846 5846 5845 5844 5844 5843
5825 5826 5829 5831 5831 5831 5833 5833 5834 5835 5836 5837 5838 5839 5840 5840 5840 5840 5841 5841 5842 5842 5843 5843 5844 5844 5844 5845 5845 5845 5845 5844 5844 5844 5844 5843 5843 5842 5842 5841 5840 5840 5839 5838
5820 5821 5824 5826 5826 5828 5831 5831 5831 5831 5832 5833 5834 5835 5835 5835 5836 5837 5837 5838 5838 5838 5839 5839 5839 5840 5840 5840 5840 5840 5840 5840 5839 5839 5838 5838 5837 5837 5837 5836 5835 5835 5834 5833
5814 5817 5821 5821 5822 5824 5826 5826 5826 5827 5828 5829 5829 5830 5831 5831 5832 5832 5833 5833 5834 5834 5835 5835 5835 5835 5835 5835 5835 5835 5835 5835 5834 5834 5833 5833 5832 5831 5831 5830 5829 5829 5828 5827
5810 5814 5814 5815 5817 5818 5819 5821 5821 5822 5823 5824 5825 5825 5826 5827 5827 5828 5828 5829 5829 5830 5830 5830 5830 5830 5830 5830 5830 5830 5830 5829 5829 5828 5827 5827 5826 5825 5825 5824 5823 5822 5822 5821
5803 5806 5808 5809 5811 5812 5814 5815 5816 5817 5818 5819 5820 5820 5821 5821 5822 5823 5823 5824 5824 5824 5825 5825 5825 5825 5825 5825 5825 5824 5824 5824 5823 5822 5821 5820 5819 5819 5818 5817 5816 5815 5814 5813
5797 5799 5801 5803 5804 5806 5808 5809 5810 5811 5812 5813 5814 5815 5815 5816 5816 5817 5817 5818 5818 5819 5819 5819 5819 5819 5819 5819 5818 5818 5818 5817 5816 5815 5815 5814 5813 5812 5811 5810 5808 5807 5806 5805
5790 5793 5794 5796 5798 5800 5801 5802 5804 5805 5806 5807 5808 5809 5809 5810 5810 5811 5812 5812 5812 5813 5813 5813 5813 5813 5812 5812 5812 5811 5811 5810 5809 5808 5807 5807 5805 5804 5803 5802 5800 5799 5797 5795
5782 5784 5787 5789 5791 5792 5794 5795 5797 5798 5799 5800 5801 5802 5803 5803 5804 5805 5805 5805 5806 5806 5806 5806 5806 5806 5806 5805 5805 5804 5804 5803 5802 5801 5800 5799 5797 5796 5795 5793 5791 5790 5788 5786
5774 5777 5779 5781 5783 5785 5786 5788 5789 5791 5792 5793 5794 5795 5796 5796 5797 5798 5798 5799 5799 5799 5799 5799 5799 5799 5798 5798 5798 5797 5796 5795 5794 5793 5792 5790 5789 5787 5785 5784 5782 5780 5778 5776
5766 5768 5771 5773 5775 5777 5778 5780 5781 5783 5784 5785 5786 5787 5788 5789 5789 5790 5791 5791 5791 5792 5792 5792 5791 5791 5791 5790 5789 5788 5788 5787 5785 5784 5782 5781 5779 5778 5776 5774 5772 5770 5767 5765
5757 5759 5762 5764 5767 5768 5770 5772 5773 5775 5776 5777 5778 5779 5780 5781 5781 5782 5783 5783 5783 5784 5784 5783 5783 5783 5782 5781 5780 5780 5779 5777 5776 5775 5773 5771 5770 5768 5766 5764 5761 5759 5756 5753
5748 5750 5753 5755 5758 5760 5761 5763 5765 5766 5767 5768 5769 5770 5771 5772 5773 5774 5774 5774 5775 5775 5775 5774 5774 5773 5773 5772 5771 5770 5769 5768 5767 5765 5764 5762 5760 5758 5755 5753 5750 5747 5745 5742
5739 5742 5744 5746 5749 5751 5752 5754 5755 5757 5758 5759 5760 5761 5762 5763 5764 5765 5765 5766 5766 5766 5765 5765 5765 5764 5763 5763 5762 5761 5759 5758 5757 5755 5753 5751 5749 5747 5744 5742 5739 5736 5733 5730
5729 5732 5735 5737 5739 5741 5743 5745 5746 5748 5749 5750 5751 5752 5753 5754 5755 5755 5756 5756 5756 5756 5756 5755 5755 5755 5754 5753 5752 5751 5749 5748 5746 5744 5742 5740 5738 5735 5733 5730 5727 5723 5720 5717
5720 5722 5725 5727 5729 5732 5734 5735 5737 5738 5740 5741 5742 5743 5744 5745 5745 5745 5746 5746 5746 5746 5746 5745 5745 5744 5744 5743 5742 5740 5739 5737 5735 5733 5731 5729 5726 5723 5720 5717 5714 5710 5707 5703
5710 5712 5715 5717 5719 5722 5724 5725 5727 5728 5730 5731 5732 5733 5734 5735 5735 5736 5736 5736 5736 5736 5736 5735 5734 5734 5733 5732 5731 5729 5728 5726 5724 5722 5719 5717 5714 5711 5708 5704 5701 5697 5694 5690
5699 5702 5705 5707 5710 5712 5713 5715 5717 5719 5720 5721 5722 5723 5724 5724 5725 5725 5725 5726 5726 5725 5725 5725 5724 5723 5722 5721 5720 5718 5716 5714 5712 5709 5707 5704 5701 5698 5695 5691 5688 5684 5680 5676
5689 5692 5695 5697 5700 5702 5703 5705 5707 5708 5710 5711 5712 5713 5713 5714 5714 5715 5715 5715 5715 5715 5714 5714 5713 5712 5711 5709 5708 5706 5704 5702 5699 5697 5694 5691 5688 5685 5681 5678 5674 5670 5666 5662
5679 5682 5685 5687 5689 5691 5693 5695 5696 5698 5699 5700 5701 5702 5703 5703 5704 5704 5704 5704 5704 5704 5703 5703 5702 5700 5699 5697 5695 5693 5691 5689 5687 5684 5681 5678 5675 5672 5668 5664 5660 5656 5652 5647
5669 5672 5674 5677 5679 5681 5683 5684 5686 5687 5688 5690 5691 5692 5692 5693 5694 5694 5694 5694 5693 5693 5692 5691 5690 5688 5687 5685 5683 5681 5679 5677 5674 5671 5668 5665 5661 5658 5654 5650 5646 5642 5637 5633
5658 5661 5664 5666 5669 5671 5673 5674 5676 5677 5678 5679 5680 5681 5682 5682 5682 5683 5683 5682 5682 5681 5680 5679 5678 5676 5674 5673 5670 5668 5666 5663 5661 5657 5654 5651 5647 5644 5640 5636 5631 5627 5623 5618
5648 5651 5654 5656 5658 5660 5662 5664 5665 5666 5667 5668 5669 5670 5671 5671 5671 5671 5671 5671 5670 5669 5668 5667 5666 5664 5662 5660 5658 5655 5653 5650 5647 5644 5640 5637 5633 5629 5625 5621 5617 5613 5608 5603